Location: Winthrop
(48.4780°N, 120.1850°W)
Time: 19:25:22
(UTC-08:00)

Envisat - Pass Details

Date: 27 November 2022
Orbit: 763 x 765 km, 98.2° (Epoch: 05 February)

Event Time Altitude Azimuth Distance (km) Brightness Sun altitude
Rises 03:24:57 0° 23° (NNE) 3,244 6.6 -39.2°
Reaches altitude 10° 03:27:36 10° 35° (NE) 2,313 5.9 -38.8°
Enters shadow 03:29:49 21° 55° (NE) 1,677 5.2 -38.4°
